TimeEDT,TemperatureF,Dew PointF,Humidity,Sea Level PressureIn,VisibilityMPH,Wind Direction,Wind SpeedMPH,Gust SpeedMPH,PrecipitationIn,Events,Conditions,WindDirDegrees,DateUTC
12:53 AM,57.9,57.0,97,30.04,10.0,Calm,Calm,-,N/A,,Overcast,0,2012-10-03 04:53:00
1:53 AM,57.9,57.0,97,30.03,9.0,Calm,Calm,-,N/A,,Overcast,0,2012-10-03 05:53:00
2:53 AM,57.0,55.9,96,30.03,10.0,Calm,Calm,-,N/A,,Mostly Cloudy,0,2012-10-03 06:53:00
3:03 AM,57.2,55.4,94,30.03,10.0,Calm,Calm,-,N/A,,Overcast,0,2012-10-03 07:03:00
3:24 AM,55.4,55.4,100,30.03,1.8,Calm,Calm,-,N/A,,Mostly Cloudy,0,2012-10-03 07:24:00
3:30 AM,53.6,53.6,100,30.03,0.5,Calm,Calm,-,N/A,Fog,Fog,0,2012-10-03 07:30:00
3:36 AM,55.4,55.4,100,30.03,1.0,Calm,Calm,-,N/A,,Mostly Cloudy,0,2012-10-03 07:36:00
3:53 AM,55.0,54.0,96,30.04,1.0,Calm,Calm,-,N/A,,Overcast,0,2012-10-03 07:53:00
4:14 AM,55.4,53.6,94,30.04,0.8,Calm,Calm,-,N/A,,Mist,0,2012-10-03 08:14:00
4:23 AM,55.4,53.6,94,30.04,1.5,Calm,Calm,-,N/A,,Mostly Cloudy,0,2012-10-03 08:23:00
4:38 AM,53.6,51.8,94,30.04,0.5,Calm,Calm,-,N/A,Fog,Fog,0,2012-10-03 08:38:00
4:53 AM,53.1,53.1,100,30.04,1.0,North,3.5,-,N/A,,Mostly Cloudy,10,2012-10-03 08:53:00
4:59 AM,53.6,53.6,100,30.04,3.0,Calm,Calm,-,N/A,,Overcast,0,2012-10-03 08:59:00
5:53 AM,55.0,54.0,96,30.05,9.0,Calm,Calm,-,N/A,,Overcast,0,2012-10-03 09:53:00
6:46 AM,55.4,55.4,100,30.06,7.0,West,3.5,-,N/A,,Overcast,270,2012-10-03 10:46:00
6:53 AM,55.9,55.0,97,30.06,7.0,West,3.5,-,N/A,,Overcast,270,2012-10-03 10:53:00
7:53 AM,57.0,55.9,96,30.07,5.0,Calm,Calm,-,N/A,,Overcast,0,2012-10-03 11:53:00
8:53 AM,57.9,57.0,97,30.09,6.0,West,3.5,-,N/A,,Overcast,270,2012-10-03 12:53:00
9:05 AM,57.2,57.2,100,30.09,5.0,Calm,Calm,-,N/A,,Overcast,0,2012-10-03 13:05:00
9:53 AM,60.1,57.9,93,30.08,5.0,Calm,Calm,-,N/A,,Overcast,0,2012-10-03 13:53:00
10:49 AM,60.8,59.0,94,30.08,2.5,Calm,Calm,-,0.02,Rain,Light Rain,0,2012-10-03 14:49:00
10:53 AM,60.1,59.0,96,30.09,2.5,Calm,Calm,-,0.02,Rain,Light Rain,0,2012-10-03 14:53:00
11:01 AM,60.8,59.0,94,30.08,4.0,Calm,Calm,-,0.00,Rain,Light Rain,0,2012-10-03 15:01:00
11:12 AM,60.8,57.2,88,30.08,3.0,Calm,Calm,-,0.01,Rain,Light Rain,0,2012-10-03 15:12:00
11:50 AM,60.8,59.0,94,30.07,3.0,Calm,Calm,-,0.02,Rain,Light Rain,0,2012-10-03 15:50:00
11:53 AM,61.0,57.9,90,30.07,3.0,Calm,Calm,-,0.02,Rain,Light Rain,0,2012-10-03 15:53:00
12:01 PM,60.8,59.0,94,30.07,3.0,Calm,Calm,-,0.01,Rain,Light Rain,0,2012-10-03 16:01:00
12:05 PM,60.8,59.0,94,30.07,3.0,Calm,Calm,-,0.01,Rain,Light Rain,0,2012-10-03 16:05:00
12:53 PM,61.0,59.0,93,30.07,3.0,Calm,Calm,-,0.02,Rain,Light Rain,0,2012-10-03 16:53:00
1:30 PM,60.8,59.0,94,30.06,2.5,ENE,3.5,-,0.01,Rain,Light Rain,70,2012-10-03 17:30:00
1:40 PM,60.8,59.0,94,30.06,3.0,NE,3.5,-,0.01,Rain,Light Rain,40,2012-10-03 17:40:00
1:53 PM,61.0,59.0,93,30.06,4.0,NE,3.5,-,0.01,Rain,Light Rain,40,2012-10-03 17:53:00
2:30 PM,62.6,60.8,94,30.06,3.0,Calm,Calm,-,0.00,,Overcast,0,2012-10-03 18:30:00
2:53 PM,62.1,60.1,93,30.07,6.0,Calm,Calm,-,0.00,,Overcast,0,2012-10-03 18:53:00
3:50 PM,62.6,60.8,94,30.06,10.0,Calm,Calm,-,N/A,,Overcast,0,2012-10-03 19:50:00
4:29 PM,62.6,60.8,94,30.07,10.0,Calm,Calm,-,N/A,,Overcast,0,2012-10-03 20:29:00
4:53 PM,62.1,60.1,93,30.07,10.0,Calm,Calm,-,N/A,,Overcast,0,2012-10-03 20:53:00
5:53 PM,62.1,60.1,93,30.09,10.0,Calm,Calm,-,N/A,,Overcast,0,2012-10-03 21:53:00
6:53 PM,62.1,60.1,93,30.09,10.0,Calm,Calm,-,N/A,,Overcast,0,2012-10-03 22:53:00
7:53 PM,62.1,60.1,93,30.10,8.0,Calm,Calm,-,N/A,,Overcast,0,2012-10-03 23:53:00
8:42 PM,60.8,60.8,100,30.10,9.0,Calm,Calm,-,N/A,,Overcast,0,2012-10-04 00:42:00
8:53 PM,61.0,60.1,97,30.11,9.0,Calm,Calm,-,N/A,,Overcast,0,2012-10-04 00:53:00
9:30 PM,60.8,60.8,100,30.11,9.0,Calm,Calm,-,N/A,,Overcast,0,2012-10-04 01:30:00
9:53 PM,61.0,60.1,97,30.11,7.0,Calm,Calm,-,N/A,,Overcast,0,2012-10-04 01:53:00
10:48 PM,60.8,60.8,100,30.11,7.0,Calm,Calm,-,N/A,,Overcast,0,2012-10-04 02:48:00
10:53 PM,61.0,60.1,97,30.11,7.0,Calm,Calm,-,N/A,,Overcast,0,2012-10-04 02:53:00
11:01 PM,60.8,60.8,100,30.11,6.0,Calm,Calm,-,N/A,,Overcast,0,2012-10-04 03:01:00
11:27 PM,60.8,60.8,100,30.11,7.0,Calm,Calm,-,N/A,,Overcast,0,2012-10-04 03:27:00
11:53 PM,61.0,60.1,97,30.12,6.0,Calm,Calm,-,N/A,,Overcast,0,2012-10-04 03:53:00
11:55 PM,60.8,60.8,100,30.11,5.0,Calm,Calm,-,N/A,,Overcast,0,2012-10-04 03:55:00